This demonstration page uses our WeatherBlox Daily Observations layout. Learn more.

Left ArrowRight Arrow

Hourly Observations for June 20, 2019

Temp ( °F °C ) Dew Point ( °F °C ) Humidity (%) Winds ( mph kmh ) Pressure ( in mb ) Visibility ( mi km ) Precip ( " mm )
12:26 am 00:26 Cloudy with Mist and Fog 70 21.1 69 20.6 97 97 N N/A 29.65 1004 3 4 N/A
12:49 am 00:49 Cloudy with Light Rain 70 21 70 21 100 100 N N/A 29.63 1004 3 5 N/A
12:53 am 00:53 Cloudy with Light Rain 70 21.1 69 20.6 97 97 N N/A 29.64 1004 3 5 N/A
1:53 am 01:53 Cloudy with Light Rain 70 21.1 69 20.6 97 97 N N/A 29.62 1003 3 5 0.04 1.02
2:43 am 02:43 Cloudy with Mist and Fog 70 21.1 69 20.6 97 97 N N/A 29.60 1002 4 6 0.02 0.51
2:53 am 02:53 Cloudy with Mist and Fog 70 21.1 69 20.6 97 97 N N/A 29.61 1003 4 6 0.02 0.51
3:53 am 03:53 Cloudy with Mist and Fog 69 20.6 68 20 96 96 N N/A 29.60 1002 5 8 N/A
4:48 am 04:48 Cloudy with Mist and Fog 70 21 68 20 94 94 N N/A 29.58 1002 5 8 N/A
4:53 am 04:53 Cloudy with Mist and Fog 69 20.6 68 20 96 96 VRB 3 6 29.59 1002 5 8 N/A
5:53 am 05:53 Mostly Cloudy with Mist and Fog 69 20.6 68 20 96 96 VRB 5 7 29.60 1002 6 10 N/A
6:00 am 06:00 Mostly Cloudy with Mist and Fog 69 20.6 68 20 96 96 SW 5 7 29.60 1003 6 10 N/A
6:53 am 06:53 Mostly Cloudy 69 20.6 67 19.4 93 93 VRB 3 6 29.61 1003 8 13 N/A
7:01 am 07:01 Cloudy 69 20.6 67 19.4 93 93 SSW 3 6 29.60 1003 7 11 N/A
7:28 am 07:28 Cloudy 69 20.6 67 19.4 93 93 SSW 6 9 29.60 1003 8 13 N/A
7:53 am 07:53 Partly Cloudy 69 20.6 68 20 96 96 SSW 6 9 29.61 1003 7 11 N/A
8:53 am 08:53 Cloudy 70 21.1 67 19.4 90 90 VRB 6 9 29.62 1003 8 13 N/A
9:11 am 09:11 Cloudy 70 21.1 67 19.4 90 90 SSW 7 11 29.61 1003 7 11 N/A
9:53 am 09:53 Cloudy with Mist and Fog 69 20.6 67 19.4 93 93 SSW 5 7 29.62 1003 6 10 N/A
10:01 am 10:01 Cloudy with Mist and Fog 70 21.1 67 19.4 90 90 SSW 6 9 29.61 1003 6 10 N/A
10:31 am 10:31 Cloudy with Mist and Fog 70 21.1 67 19.4 90 90 SW 7 11 29.62 1003 6 10 N/A
10:53 am 10:53 Cloudy 71 21.7 68 20 90 90 SW 8 13 29.62 1003 8 13 N/A
11:32 am 11:32 Partly Cloudy 73 22.8 68 20 84 84 SW 8 13 29.61 1003 8 13 N/A
11:53 am 11:53 Mostly Cloudy 72 22.2 67 19.4 84 84 SW 8 13 29.60 1003 9 14 N/A
12:53 pm 12:53 Cloudy 73 22.8 67 19.4 81 81 SW 9 15 29.60 1002 10 16 N/A
1:35 pm 13:35 Cloudy with Light Rain 72 22.2 67 19.4 84 84 WSW 9 15 29.60 1002 10 16 N/A
1:53 pm 13:53 Mostly Cloudy 73 22.8 65 18.3 76 76 W 16 26 29.61 1003 10 16 N/A
2:08 pm 14:08 Cloudy 72 22.2 64 17.8 76 76 WSW 18 30 29.61 1003 10 16 N/A
2:44 pm 14:44 Cloudy 70 21.1 64 17.8 82 82 WSW 17 28 29.62 1003 10 16 N/A
2:53 pm 14:53 Cloudy with Light Rain 69 20.6 64 17.8 84 84 WSW 16 26 29.64 1004 9 14 N/A
3:53 pm 15:53 Cloudy 68 20 62 16.7 81 81 W 14 22 29.66 1005 10 16 N/A
4:53 pm 16:53 Cloudy 68 20 63 17.2 84 84 W 12 19 29.69 1005 10 16 N/A
5:53 pm 17:53 Cloudy 69 20.6 63 17.2 81 81 WNW 10 17 29.70 1006 10 16 N/A
6:53 pm 18:53 Cloudy 70 21.1 62 16.7 76 76 WNW 13 20 29.73 1007 10 16 N/A
7:53 pm 19:53 Cloudy 70 21.1 63 17.2 79 79 W 8 13 29.75 1008 10 16 N/A
8:53 pm 20:53 Cloudy 69 20.6 62 16.7 78 78 W 7 11 29.76 1008 10 16 N/A
9:53 pm 21:53 Partly Cloudy 68 20 63 17.2 84 84 W 6 9 29.80 1009 10 16 N/A
10:53 pm 22:53 Mostly Cloudy 67 19.4 62 16.7 84 84 NW 8 13 29.83 1010 10 16 N/A
11:29 pm 23:29 Mostly Cloudy 67 19.4 62 16.7 84 84 WNW 3 6 29.85 1011 10 16 N/A
11:53 pm 23:53 Cloudy 67 19.4 62 16.7 84 84 WNW 6 9 29.85 1011 10 16 N/A

Powered by AerisWeather